| time (UTC) | temp C | wind direction | speed KPH | gust KPH | rain 1hr cm | rain 24hr cm | rain mn cm | humidity % | barometer mb |
| 20260505003039 | 16 | 315 | 4.8 | 11.3 | 0.00 | 0.00 | 0.00 | 50 | 1009.8 |
| 20260505002019 | 16 | 293 | 6.4 | 20.9 | 0.00 | 0.00 | 0.00 | 50 | 1009.7 |
| 20260505001019 | 17 | 293 | 3.2 | 11.3 | 0.00 | 0.00 | 0.00 | 49 | 1009.4 |
| 20260505000038 | 17 | 0 | 4.8 | 9.7 | 0.00 | 0.00 | 0.00 | 48 | 1009.2 |
| 20260504235018 | 17 | 293 | 4.8 | 16.1 | 0.00 | 0.00 | 0.00 | 47 | 1008.9 |
| 20260504234018 | 17 | 270 | 6.4 | 14.5 | 0.00 | 0.00 | 0.00 | 46 | 1008.8 |
| 20260504233018 | 18 | 293 | 4.8 | 17.7 | 0.00 | 0.00 | 0.00 | 45 | 1008.8 |
| 20260504232018 | 18 | 293 | 4.8 | 17.7 | 0.00 | 0.00 | 0.00 | 45 | 1008.5 |
| 20260504231019 | 19 | 293 | 4.8 | 11.3 | 0.00 | 0.00 | 0.00 | 43 | 1008.3 |
| 20260504230018 | 19 | 293 | 4.8 | 14.5 | 0.00 | 0.00 | 0.00 | 42 | 1008.2 |
| 20260504225018 | 20 | 315 | 4.8 | 12.9 | 0.00 | 0.00 | 0.00 | 41 | 1008.0 |
| 20260504224018 | 20 | 315 | 4.8 | 14.5 | 0.00 | 0.00 | 0.00 | 39 | 1007.8 |
| 20260504223018 | 21 | 315 | 4.8 | 12.9 | 0.00 | 0.00 | 0.00 | 37 | 1007.8 |
| 20260504222018 | 21 | 293 | 6.4 | 16.1 | 0.00 | 0.00 | 0.00 | 34 | 1007.6 |
| 20260504221018 | 22 | 293 | 4.8 | 14.5 | 0.00 | 0.00 | 0.00 | 33 | 1007.7 |
| 20260504220018 | 22 | 293 | 4.8 | 11.3 | 0.00 | 0.00 | 0.00 | 33 | 1007.6 |
| 20260504215018 | 22 | 203 | 3.2 | 8.0 | 0.00 | 0.00 | 0.00 | 34 | 1007.7 |
| 20260504214018 | 22 | 293 | 4.8 | 11.3 | 0.00 | 0.00 | 0.00 | 33 | 1007.7 |
| 20260504213018 | 22 | 293 | 4.8 | 11.3 | 0.00 | 0.00 | 0.00 | 33 | 1007.7 |
| 20260504212018 | 22 | 270 | 4.8 | 11.3 | 0.00 | 0.00 | 0.00 | 32 | 1007.8 |
| 20260504211018 | 22 | 315 | 4.8 | 12.9 | 0.00 | 0.00 | 0.00 | 33 | 1007.7 |
| 20260504210019 | 22 | 293 | 4.8 | 16.1 | 0.00 | 0.00 | 0.00 | 33 | 1007.7 |
| 20260504205018 | 22 | 293 | 4.8 | 14.5 | 0.00 | 0.00 | 0.00 | 32 | 1007.6 |
| 20260504204018 | 22 | 293 | 4.8 | 11.3 | 0.00 | 0.00 | 0.00 | 33 | 1007.7 |
| 20260504203018 | 22 | 293 | 6.4 | 16.1 | 0.00 | 0.00 | 0.00 | 31 | 1007.7 |
| 20260504202038 | 22 | 315 | 6.4 | 20.9 | 0.00 | 0.00 | 0.00 | 32 | 1007.8 |
| 20260504201018 | 22 | 270 | 8.0 | 24.1 | 0.00 | 0.00 | 0.00 | 30 | 1007.8 |
| 20260504200018 | 22 | 315 | 6.4 | 20.9 | 0.00 | 0.00 | 0.00 | 31 | 1007.9 |
| 20260504195018 | 22 | 270 | 4.8 | 14.5 | 0.00 | 0.00 | 0.00 | 32 | 1007.9 |
| 20260504194018 | 22 | 270 | 6.4 | 16.1 | 0.00 | 0.00 | 0.00 | 31 | 1007.9 |
| 20260504193018 | 22 | 270 | 4.8 | 14.5 | 0.00 | 0.00 | 0.00 | 32 | 1007.9 |
| 20260504192018 | 22 | 293 | 4.8 | 12.9 | 0.00 | 0.00 | 0.00 | 31 | 1007.9 |
| 20260504191018 | 22 | 293 | 8.0 | 16.1 | 0.00 | 0.00 | 0.00 | 30 | 1008.2 |
| 20260504190059 | 22 | 293 | 9.7 | 19.3 | 0.00 | 0.00 | 0.00 | 31 | 1008.1 |
| 20260504185018 | 22 | 315 | 8.0 | 17.7 | 0.00 | 0.00 | 0.00 | 31 | 1008.2 |
| 20260504184018 | 21 | 293 | 9.7 | 27.4 | 0.00 | 0.00 | 0.00 | 30 | 1008.3 |
| 20260504183038 | 22 | 270 | 6.4 | 25.7 | 0.00 | 0.00 | 0.00 | 31 | 1008.6 |
| 20260504182038 | 21 | 293 | 6.4 | 16.1 | 0.00 | 0.00 | 0.00 | 30 | 1008.6 |
| 20260504181018 | 21 | 315 | 8.0 | 20.9 | 0.00 | 0.00 | 0.00 | 32 | 1008.6 |
| 20260504180018 | 21 | 315 | 8.0 | 27.4 | 0.00 | 0.00 | 0.00 | 33 | 1008.7 |
| 20260504175018 | 21 | 270 | 9.7 | 19.3 | 0.00 | 0.00 | 0.00 | 34 | 1008.7 |
| 20260504174018 | 21 | 293 | 9.7 | 16.1 | 0.00 | 0.00 | 0.00 | 33 | 1008.8 |
| 20260504173038 | 21 | 293 | 6.4 | 20.9 | 0.00 | 0.00 | 0.00 | 34 | 1009.1 |
| 20260504172058 | 21 | 293 | 4.8 | 14.5 | 0.00 | 0.00 | 0.00 | 33 | 1009.0 |
| 20260504171018 | 20 | 270 | 8.0 | 19.3 | 0.00 | 0.00 | 0.00 | 36 | 1009.0 |
| 20260504151100 | 18 | 293 | 6.4 | 17.7 | 0.00 | 0.00 | 0.00 | 38 | 1010.3 |
| 20260504141018 | 17 | 270 | 4.8 | 16.1 | 0.00 | 0.00 | 0.00 | 40 | 1010.5 |
| 20260504081019 | 7 | 0.0 | 1.6 | 0.00 | 0.00 | 0.00 | 62 | 1011.4 | |
| 20260504050019 | 6 | 225 | 1.6 | 4.8 | 0.00 | 0.00 | 0.00 | 61 | 1011.2 |
| 20260504045018 | 5 | 225 | 1.6 | 9.7 | 0.00 | 0.00 | 0.00 | 63 | 1011.3 |
| 20260504044019 | 5 | 0.0 | 0.0 | 0.00 | 0.00 | 0.00 | 66 | 1011.3 | |
| 20260504043018 | 4 | 0.0 | 0.0 | 0.00 | 0.00 | 0.00 | 66 | 1011.2 | |
| 20260504042018 | 4 | 0.0 | 0.0 | 0.00 | 0.00 | 0.00 | 67 | 1011.2 | |
| 20260504041018 | 4 | 0.0 | 1.6 | 0.00 | 0.00 | 0.00 | 68 | 1011.0 | |
| 20260504040038 | 3 | 0.0 | 0.0 | 0.00 | 0.00 | 0.00 | 70 | 1010.8 | |
| 20260504035019 | 3 | 0.0 | 1.6 | 0.00 | 0.00 | 0.00 | 71 | 1010.7 | |
| 20260504034018 | 3 | 0.0 | 0.0 | 0.00 | 0.00 | 0.00 | 72 | 1010.7 | |
| 20260504033018 | 3 | 0.0 | 0.0 | 0.00 | 0.00 | 0.00 | 73 | 1010.6 | |
| 20260504032018 | 3 | 0.0 | 0.0 | 0.00 | 0.00 | 0.00 | 72 | 1010.6 | |
| 20260504031019 | 3 | 0.0 | 0.0 | 0.00 | 0.00 | 0.00 | 72 | 1010.6 | |
| 20260504030018 | 3 | 0.0 | 0.0 | 0.00 | 0.00 | 0.00 | 72 | 1010.5 | |
| 20260504025019 | 3 | 0.0 | 0.0 | 0.00 | 0.00 | 0.00 | 72 | 1010.4 | |
| 20260504024018 | 3 | 0.0 | 0.0 | 0.00 | 0.00 | 0.00 | 72 | 1010.5 | |
| 20260504023018 | 4 | 0.0 | 0.0 | 0.00 | 0.00 | 0.00 | 71 | 1010.5 | |
| 20260504022018 | 4 | 0.0 | 0.0 | 0.00 | 0.00 | 0.00 | 71 | 1010.5 | |
| 20260504021018 | 4 | 0.0 | 0.0 | 0.00 | 0.00 | 0.00 | 70 | 1010.5 | |
| 20260504020018 | 5 | 0.0 | 0.0 | 0.00 | 0.00 | 0.00 | 69 | 1010.5 | |
| 20260504015018 | 5 | 0.0 | 0.0 | 0.00 | 0.00 | 0.00 | 68 | 1010.5 | |
| 20260504014018 | 5 | 0.0 | 0.0 | 0.00 | 0.00 | 0.00 | 67 | 1010.4 | |
| 20260504013019 | 5 | 0.0 | 0.0 | 0.00 | 0.00 | 0.00 | 66 | 1010.4 | |
| 20260504012018 | 6 | 0.0 | 0.0 | 0.00 | 0.00 | 0.00 | 64 | 1010.2 | |
| 20260504011018 | 6 | 0.0 | 0.0 | 0.00 | 0.00 | 0.00 | 63 | 1010.1 | |
| 20260504010038 | 6 | 225 | 1.6 | 3.2 | 0.00 | 0.00 | 0.00 | 62 | 1010.0 |
| 20260504005018 | 7 | 225 | 1.6 | 3.2 | 0.00 | 0.00 | 0.00 | 59 | 1009.9 |
| 20260504004018 | 7 | 225 | 1.6 | 3.2 | 0.00 | 0.00 | 0.00 | 57 | 1009.8 |